Regional Weather Roundup
Issued by NWS

Home | Current Version | Previous Version | Text Only | Print | Product List | Glossary Off
Versions: 1 2 3 4 5 6 7 8 9 10 11 12 13 14 15 16 17 18 19 20 21 22 23 24 25 26 27 28 29 30 31 32 33 34 35 36 37 38 39 40 41 42 43 44 45 46 47 48 49 50

000
ASUS45 KBOU 240507
RWRCO

WEATHER ROUNDUP FOR COLORADO
NATIONAL WEATHER SERVICE DENVER/BOULDER CO
1000 PM MST SUN NOV 23 2014

NOTE: "FAIR" INDICATES FEW OR NO CLOUDS BELOW 12000 FEET WITH NO
SIGNIFICANT WEATHER AND/OR OBSTRUCTIONS TO VISIBILITY.

COZ001>005-013-030-031-240600-
...NORTHWEST COLORADO...

CITY           SKY/WX    TMP DP  RH WIND       PRES   REMARKS
CRAIG          PTCLDY    17  10  74 SW13      30.07S WCI   4
HAYDEN         CLOUDY    18   9  68 S6        30.06R WCI   9
MEEKER         PTCLDY    15   9  76 W6        30.10R WCI   6
MOUNT WERNER   NOT AVBL
STEAMBOAT SPGS CLOUDY    19  13  76 CALM      30.04S
WALDEN         CLEAR     10   3  72 E3        29.93S
$$

COZ006>008-011-240600-
...WEST CENTRAL VALLEYS...

CITY           SKY/WX    TMP DP  RH WIND       PRES   REMARKS
GRAND JUNCTION CLEAR     24  17  74 NE6       30.14R WCI  17
MONTROSE       PTCLDY    26  14  60 CALM      30.14R
EAGLE          CLOUDY    21  18  86 E5        30.07S WCI  15
RIFLE          PTCLDY    22  15  75 SW7       30.12R WCI  13
DELTA          PTCLDY    34  13  43 W7        30.11F WCI  27
NUCLA          PTCLDY    25  18  74 E3        30.17R
$$

COZ017>023-064>068-240600-
...SOUTHWEST COLORADO...

CITY           SKY/WX    TMP DP  RH WIND       PRES   REMARKS
DURANGO        CLEAR     25  10  53 W12       30.05S WCI  14
CORTEZ         CLEAR     21  11  65 SE3       30.14R
PAGOSA SPRINGS CLEAR     19   6  55 N3        30.03R
TELLURIDE      NOT AVBL
WOLF CREEK PAS CLEAR      3  -8  60 MISG      29.92S
$$

COZ009-010-012-014-032>034-037-058>063-240600-
...CENTRAL COLORADO...

CITY           SKY/WX    TMP DP  RH WIND       PRES   REMARKS
ASPEN          CLOUDY    18  10  71 N3        30.02R
BUENA VISTA    PTCLDY    21   4  48 CALM      29.94R
COPPER MTN     CLOUDY     5   0  78 W20G38    29.84R WCI -15
BERTHOUD PASS  HVY SNOW   0  -6  78 MISG      29.77S VSB 1/4
COTTONWOOD PAS MOCLDY    18   1  49 W12G29    29.87S WCI   5
GUNNISON       PTCLDY    18   3  53 W5        30.04S WCI  11
KREMMLING      FLURRIES  23  12  63 NW8       30.02S WCI  14
LEADVILLE      CLOUDY     8   4  83 N6        29.91R WCI  -2
MONARCH PASS   CLOUDY     3  -2  78 MISG      29.96R
SALIDA         PTCLDY    24   4  43 W12G17    30.02F WCI  12
SUNLIGHT       CLOUDY   N/A N/A N/A MISG      29.96F
WILKERSON PASS LGT SNOW   7   3  85 NW9G23    29.84S WCI  -7
$$

COZ069>075-240600-
...SAN LUIS VALLEY/SANGRE DE CRISTO MOUNTAINS...

CITY           SKY/WX    TMP DP  RH WIND       PRES   REMARKS
ALAMOSA        CLEAR     21   3  45 N10       29.98R WCI  10
LA VETA PASS   PTCLDY     9   3  78 MISG      29.86S
SAGUACHE       NOT AVBL
$$

COZ035-036-038>040-240600-
...NORTHERN COLORADO FRONT RANGE...

CITY           SKY/WX    TMP DP  RH WIND       PRES   REMARKS
DENVER INTL AP PTCLDY    27  12  53 W9        29.88S WCI  18
DMNS CITY PARK   N/A     30   5  35 W8        29.90S WCI  22
AURORA         PTCLDY    27  10  49 W9        29.89S WCI  17
FRONT RANGE AP CLEAR     27  19  74 W12       29.89S WCI  16
ERIE MUNI ARPT PTCLDY    25  13  60 CALM      29.88S
BOULDER MUN AP PTCLDY    32   9  37 W18G25    29.87S WCI  20
CENTENNIAL     CLEAR     28   9  44 NW10      29.89R WCI  19
BROOMFIELD     CLEAR     32   7  34 N6        29.89S WCI  26
FORT COLLINS   CLEAR     30   9  40 NW7       29.88F WCI  23
LONGMONT       CLEAR     28  13  52 SW5       29.89F WCI  23
$$

COZ041-046-047-076>085-087-088-240600-
...PIKES PEAK/PALMER DIVIDE AND SOUTHERN FOOTHILLS...

CITY           SKY/WX    TMP DP  RH WIND       PRES   REMARKS
COLO. SPRINGS  CLEAR     24  13  62 N3        29.91S
A. F. ACADEMY  PTCLDY    18   7  60 VRB6      29.88F WCI  10
ELLICOTT       NOT AVBL
FALCON         NOT AVBL
FORT CARSON    PTCLDY    20  13  76 E2        29.90S
LIMON          CLEAR     22  15  75 NW14      29.87S WCI   9
MONUMENT HILL  CLEAR     10   7  85 W9        29.87S WCI  -2
TRINIDAD       LGT SNOW  29  26  89 NW7       29.96S FOG     WCI  22
$$

COZ042>045-048>051-090-091-240600-
...NORTHEAST COLORADO...

CITY           SKY/WX    TMP DP  RH WIND       PRES   REMARKS
GREELEY ARPT   CLEAR     21  10  63 W3        29.89S
AKRON          CLEAR     22  15  75 W12       29.84F WCI  10
BURLINGTON     CLEAR     29  13  51 NW22      29.85R WCI  15
WRAY           CLEAR     30  17  57 W15       29.83S WCI  19
STERLING       CLEAR     30  21  69 NW12      29.84F WCI  21
HOLYOKE        CLEAR     34  21  60 W14G21    29.81S WCI  24
FORT MORGAN    CLEAR     29  14  51 NW16      29.88S WCI  18
$$

COZ086-089-092>099-240600-
...SOUTHEAST COLORADO...

CITY           SKY/WX    TMP DP  RH WIND       PRES   REMARKS
PUEBLO         CLEAR     23  20  88 N3        29.93F
LA JUNTA       MOCLDY    31  23  72 W12       29.93S WCI  22
LAMAR          CLOUDY    34  24  67 W8        29.89S WCI  27
SPRINGFIELD      N/A     35  20  54 NW14      29.89F WCI  26
$$



USA.gov is the U.S. government's official web portal to all federal, state and local government web resources and services.